GW3598 Weather Reports


time (UTC)temp
C
wind
direction
speed
KPH
gust
KPH
rain 1hr
cm
rain 24hr
cm
rain mn
cm
humidity
%
barometer
mb
20260906205831 30 186 1.6 4.8 0.00 0.00 0.00 56 1018.7
20260906205328 29 185 3.2 3.2 0.00 0.00 0.00 58 1018.8
20260906204823 28 176 6.4 6.4 0.00 0.00 0.00 56 1018.9
20260906204322 28 198 3.2 6.4 0.00 0.00 0.00 58 1019.0
20260906203821 28 155 3.2 4.8 0.00 0.00 0.00 57 1018.9
20260906203317 29 179 6.4 6.4 0.00 0.00 0.00 57 1019.1
20260906202814 29 166 6.4 16.1 0.00 0.00 0.00 55 1019.1
20260906202314 29 202 3.2 4.8 0.00 0.00 0.00 57 1019.1
20260906201808 29 173 1.6 1.6 0.00 0.00 0.00 57 1019.0
20260906201308 29 183 1.6 3.2 0.00 0.00 0.00 58 1018.9
20260906200804 29 185 3.2 3.2 0.00 0.00 0.00 59 1019.1
20260906200259 30 177 4.8 6.4 0.00 0.00 0.00 56 1019.3
20260906195754 29 160 4.8 4.8 0.00 0.00 0.00 56 1019.3
20260906195251 29 216 1.6 1.6 0.00 0.00 0.00 60 1019.1
20260906194747 28 199 1.6 1.6 0.00 0.00 0.00 59 1019.4
20260906194242 28 231 8.0 11.3 0.00 0.00 0.00 58 1019.1
20260906193737 28 181 1.6 0.0 0.00 0.00 0.00 61 1019.4
20260906193231 28 167 3.2 4.8 0.00 0.00 0.00 60 1019.4
20260906192727 28 186 3.2 4.8 0.00 0.00 0.00 60 1019.5
20260906192222 28 198 3.2 6.4 0.00 0.00 0.00 59 1019.4
20260906191715 28 207 3.2 4.8 0.00 0.00 0.00 60 1019.5
20260906191210 28 96 3.2 3.2 0.00 0.00 0.00 61 1019.4
20260906190709 28 233 9.7 11.3 0.00 0.00 0.00 58 1019.6
20260906190204 28 197 1.6 1.6 0.00 0.00 0.00 62 1019.7
20260906185703 28 169 3.2 4.8 0.00 0.00 0.00 62 1019.8
20260906185202 27 222 4.8 6.4 0.00 0.00 0.00 63 1019.5
20260906184658 27 207 1.6 1.6 0.00 0.00 0.00 64 1019.8
20260906184153 27 193 4.8 6.4 0.00 0.00 0.00 65 1019.8
20260906183649 27 179 4.8 9.7 0.00 0.00 0.00 66 1020.0
20260906183145 27 200 3.2 4.8 0.00 0.00 0.00 65 1020.0
20260906182645 27 194 1.6 1.6 0.00 0.00 0.00 66 1020.2
20260906182141 27 114 0.0 0.0 0.00 0.00 0.00 66 1020.1
20260906181636 27 170 4.8 4.8 0.00 0.00 0.00 65 1020.1
20260906181132 26 191 1.6 1.6 0.00 0.00 0.00 68 1020.0
20260906180627 26 177 1.6 3.2 0.00 0.00 0.00 70 1020.1
20260906180126 26 185 3.2 3.2 0.00 0.00 0.00 69 1020.3
20260906175624 26 181 0.0 0.0 0.00 0.00 0.00 69 1020.4
20260906175120 26 199 4.8 4.8 0.00 0.00 0.00 68 1020.4
20260906174618 26 187 3.2 6.4 0.00 0.00 0.00 70 1020.5
20260906174114 25 193 0.0 1.6 0.00 0.00 0.00 71 1020.7
20260906173609 25 197 1.6 3.2 0.00 0.00 0.00 75 1020.6
20260906173104 25 185 1.6 3.2 0.00 0.00 0.00 72 1020.8
20260906172603 25 186 6.4 11.3 0.00 0.00 0.00 74 1020.9
20260906172059 24 212 4.8 6.4 0.00 0.00 0.00 75 1021.0
20260906171558 25 174 6.4 11.3 0.00 0.00 0.00 74 1021.1
20260906171054 25 156 6.4 6.4 0.00 0.00 0.00 75 1021.1
20260906170550 25 200 9.7 11.3 0.00 0.00 0.00 73 1021.3
20260906170049 25 217 3.2 3.2 0.00 0.00 0.00 74 1021.3
20260906165546 24 207 1.6 1.6 0.00 0.00 0.00 77 1021.3
20260906165041 24 310 1.6 1.6 0.00 0.00 0.00 76 1021.4
20260906164540 24 200 3.2 3.2 0.00 0.00 0.00 78 1021.5
20260906164036 23 178 4.8 4.8 0.00 0.00 0.00 78 1021.5
20260906163531 23 212 3.2 3.2 0.00 0.00 0.00 77 1021.5
20260906163027 23 185 4.8 4.8 0.00 0.00 0.00 77 1021.4
20260906162524 23 217 6.4 6.4 0.00 0.00 0.00 78 1021.3
20260906162019 23 154 1.6 1.6 0.00 0.00 0.00 79 1021.5
20260906161514 23 179 1.6 1.6 0.00 0.00 0.00 79 1021.4
20260906161013 22 178 0.0 0.0 0.00 0.00 0.00 81 1021.4
20260906160512 22 185 6.4 6.4 0.00 0.00 0.00 80 1021.4
20260906160011 22 171 0.0 0.0 0.00 0.00 0.00 82 1021.1
20260906155509 22 179 0.0 0.0 0.00 0.00 0.00 82 1021.2
20260906155005 22 180 3.2 3.2 0.00 0.00 0.00 83 1021.3
20260906154500 21 188 0.0 0.0 0.00 0.00 0.00 83 1021.3
20260906153959 21 190 1.6 3.2 0.00 0.00 0.00 84 1021.1
20260906153457 21 185 3.2 3.2 0.00 0.00 0.00 83 1021.2
20260906152953 21 167 0.0 0.0 0.00 0.00 0.00 84 1021.4
20260906152453 20 37 1.6 1.6 0.00 0.00 0.00 85 1021.3
20260906151952 20 34 0.0 0.0 0.00 0.00 0.00 85 1021.4
20260906151447 20 188 0.0 0.0 0.00 0.00 0.00 87 1021.1
20260906150938 20 199 4.8 4.8 0.00 0.00 0.00 87 1021.2
20260906150433 19 174 0.0 0.0 0.00 0.00 0.00 87 1021.2
20260906145932 20 174 4.8 4.8 0.00 0.00 0.00 86 1021.4
20260906145431 19 183 3.2 3.2 0.00 0.00 0.00 87 1021.4
20260906144926 18 183 0.0 0.0 0.00 0.00 0.00 88 1021.5
20260906144420 18 172 0.0 0.0 0.00 0.00 0.00 89 1021.4
20260906143911 18 198 0.0 0.0 0.00 0.00 0.00 89 1021.3
20260906143406 18 203 1.6 1.6 0.00 0.00 0.00 88 1021.4
20260906142902 18 176 0.0 1.6 0.00 0.00 0.00 90 1021.1
20260906142401 17 192 1.6 1.6 0.00 0.00 0.00 90 1021.3
20260906141856 17 200 3.2 3.2 0.00 0.00 0.00 89 1021.3
20260906141356 17 201 1.6 3.2 0.00 0.00 0.00 90 1021.2
20260906140855 17 203 0.0 0.0 0.00 0.00 0.00 90 1021.2
20260906140350 17 203 0.0 0.0 0.00 0.00 0.00 90 1021.4
20260906135848 17 93 0.0 0.0 0.00 0.00 0.00 91 1021.4
20260906135343 17 51 0.0 0.0 0.00 0.00 0.00 91 1021.6
20260906134838 16 208 0.0 0.0 0.00 0.00 0.00 92 1021.4
20260906134333 16 59 0.0 0.0 0.00 0.00 0.00 92 1021.6
20260906133829 16 47 1.6 1.6 0.00 0.00 0.00 93 1021.7
20260906133324 16 45 0.0 0.0 0.00 0.00 0.00 93 1021.6
20260906132819 16 82 0.0 0.0 0.00 0.00 0.00 94 1021.6
20260906132314 15 165 1.6 1.6 0.00 0.00 0.00 95 1021.2
20260906131810 15 176 0.0 0.0 0.00 0.00 0.00 96 1021.2
20260906131305 15 170 1.6 1.6 0.00 0.00 0.00 96 1021.0
20260906130801 15 181 1.6 1.6 0.00 0.00 0.00 96 1021.1
20260906130255 15 189 1.6 1.6 0.00 0.00 0.00 96 1021.3
20260906125754 15 190 0.0 0.0 0.00 0.00 0.00 96 1021.3
20260906125252 15 190 0.0 0.0 0.00 0.00 0.00 95 1021.4
20260906124752 15 190 0.0 0.0 0.00 0.00 0.00 95 1021.8
20260906124248 15 190 1.6 1.6 0.00 0.00 0.00 96 1021.8
20260906123747 15 190 0.0 0.0 0.00 0.00 0.00 96 1021.7
20260906123242 15 190 0.0 0.0 0.00 0.00 0.00 96 1021.3
20260906122742 15 190 0.0 1.6 0.00 0.00 0.00 96 1021.2
20260906122237 15 196 0.0 0.0 0.00 0.00 0.00 96 1021.5
20260906121733 15 196 0.0 0.0 0.00 0.00 0.00 97 1021.5
20260906121230 15 202 0.0 0.0 0.00 0.00 0.00 97 1021.3
20260906120725 15 202 0.0 0.0 0.00 0.00 0.00 97 1021.0
20260906120222 15 202 0.0 0.0 0.00 0.00 0.00 97 1021.3
20260906115717 15 202 0.0 0.0 0.00 0.00 0.00 96 1021.2
20260906115212 15 202 0.0 0.0 0.00 0.00 0.00 96 1021.3
20260906114711 15 203 1.6 1.6 0.00 0.00 0.00 97 1021.2
20260906114206 15 183 1.6 1.6 0.00 0.00 0.00 97 1020.9
20260906113701 15 183 1.6 1.6 0.00 0.00 0.00 97 1021.1
20260906113201 15 183 1.6 1.6 0.00 0.00 0.00 97 1021.0
20260906112700 15 183 0.0 0.0 0.00 0.00 0.00 97 1020.8
20260906112158 15 183 1.6 1.6 0.00 0.00 0.00 97 1020.9
20260906111657 15 182 0.0 0.0 0.00 0.00 0.00 97 1020.9
20260906111151 15 182 0.0 0.0 0.00 0.00 0.00 97 1020.8
20260906110646 15 182 0.0 0.0 0.00 0.00 0.00 97 1020.7
20260906110142 15 182 0.0 0.0 0.00 0.00 0.00 98 1020.5
20260906105635 15 182 0.0 0.0 0.00 0.00 0.00 98 1020.4
20260906105132 15 183 0.0 0.0 0.00 0.00 0.00 98 1020.4
20260906104631 15 183 0.0 0.0 0.00 0.00 0.00 98 1020.8
20260906104130 15 183 3.2 3.2 0.00 0.00 0.00 98 1020.6
20260906103629 15 174 1.6 1.6 0.00 0.00 0.00 98 1020.6
20260906103124 15 174 0.0 0.0 0.00 0.00 0.00 98 1020.4
20260906102619 15 174 0.0 0.0 0.00 0.00 0.00 98 1020.1
20260906102108 15 174 0.0 0.0 0.00 0.00 0.00 98 1020.0
20260906101602 15 174 0.0 0.0 0.00 0.00 0.00 98 1020.0
20260906101052 15 174 0.0 0.0 0.00 0.00 0.00 98 1020.2
20260906100548 15 174 0.0 0.0 0.00 0.00 0.00 98 1020.2
20260906100047 15 173 0.0 0.0 0.00 0.00 0.00 98 1019.9
20260906095547 15 174 0.0 0.0 0.00 0.00 0.00 98 1020.0
20260906095043 15 174 0.0 0.0 0.00 0.00 0.00 98 1020.0
20260906094541 15 174 0.0 0.0 0.00 0.00 0.00 98 1020.0
20260906094037 15 174 0.0 0.0 0.00 0.00 0.00 98 1020.2
20260906093533 15 174 0.0 0.0 0.00 0.00 0.00 98 1020.2
20260906093028 15 174 0.0 0.0 0.00 0.00 0.00 98 1020.0
20260906092523 15 174 0.0 0.0 0.00 0.00 0.00 98 1019.9
20260906092018 15 174 0.0 0.0 0.00 0.00 0.00 98 1020.2
20260906091514 15 174 0.0 0.0 0.00 0.00 0.00 98 1020.1
20260906091010 15 174 0.0 0.0 0.00 0.00 0.00 97 1020.2
20260906090505 15 174 0.0 0.0 0.00 0.00 0.00 97 1020.2
20260906090004 15 174 0.0 0.0 0.00 0.00 0.00 97 1019.9
20260906085504 15 174 0.0 0.0 0.00 0.00 0.00 97 1020.1
20260906085003 15 174 0.0 0.0 0.00 0.00 0.00 97 1020.1
20260906084458 15 174 0.0 0.0 0.00 0.00 0.00 97 1020.1
20260906083957 15 174 0.0 0.0 0.00 0.00 0.00 97 1020.2
20260906083453 15 174 0.0 0.0 0.00 0.00 0.00 97 1020.4
20260906082951 15 173 0.0 0.0 0.00 0.00 0.00 97 1020.3
20260906082447 15 173 0.0 0.0 0.00 0.00 0.00 97 1020.4
20260906081944 15 173 0.0 0.0 0.00 0.00 0.00 97 1020.3
20260906081443 15 188 0.0 0.0 0.00 0.00 0.00 97 1020.3
20260906080940 15 189 0.0 0.0 0.00 0.00 0.00 97 1020.3
20260906080437 15 188 0.0 0.0 0.00 0.00 0.00 98 1020.2
20260906075937 15 189 0.0 1.6 0.00 0.00 0.00 98 1020.1
20260906075432 16 181 1.6 1.6 0.00 0.00 0.00 98 1020.2
20260906074927 16 181 0.0 0.0 0.00 0.00 0.00 98 1020.2
20260906074426 16 181 0.0 0.0 0.00 0.00 0.00 98 1020.3
20260906073925 16 181 0.0 0.0 0.00 0.00 0.00 98 1020.4
20260906073420 16 180 0.0 0.0 0.00 0.00 0.00 98 1020.1
20260906072917 16 181 0.0 0.0 0.00 0.00 0.00 98 1020.1
20260906072412 16 181 0.0 0.0 0.00 0.00 0.00 98 1019.9
20260906071908 16 180 0.0 0.0 0.00 0.00 0.00 98 1020.2
20260906071403 16 178 1.6 1.6 0.00 0.00 0.00 98 1020.4
20260906070859 16 177 0.0 0.0 0.00 0.00 0.00 98 1020.4
20260906070355 16 177 0.0 0.0 0.00 0.00 0.00 98 1020.5
20260906065850 16 177 0.0 0.0 0.00 0.00 0.00 98 1020.5
20260906065344 16 178 0.0 0.0 0.00 0.00 0.00 98 1020.8
20260906064840 16 176 1.6 1.6 0.00 0.00 0.00 98 1020.7
20260906064336 16 188 1.6 1.6 0.00 0.00 0.00 98 1020.7
20260906063830 16 188 0.0 0.0 0.00 0.00 0.00 98 1020.7
20260906063326 16 188 0.0 0.0 0.00 0.00 0.00 98 1020.9
20260906062821 16 188 0.0 0.0 0.00 0.00 0.00 98 1020.8
20260906062320 16 188 0.0 0.0 0.00 0.00 0.00 98 1020.8
20260906061815 16 188 0.0 0.0 0.00 0.00 0.00 98 1020.8
20260906061313 16 188 0.0 0.0 0.00 0.00 0.00 98 1021.0
20260906060812 16 188 0.0 0.0 0.00 0.00 0.00 98 1020.9
20260906060311 16 188 0.0 0.0 0.00 0.00 0.00 98 1021.0
20260906055806 16 188 0.0 0.0 0.00 0.00 0.00 98 1021.0
20260906055301 16 188 0.0 0.0 0.00 0.00 0.00 98 1020.9
20260906054756 16 188 0.0 0.0 0.00 0.00 0.00 98 1020.9
20260906054252 16 188 0.0 0.0 0.00 0.00 0.00 98 1020.7
20260906053748 16 188 0.0 0.0 0.00 0.00 0.00 98 1020.9
20260906053244 16 188 0.0 0.0 0.00 0.00 0.00 97 1020.8
20260906052738 16 188 0.0 0.0 0.00 0.00 0.00 97 1020.7
20260906052235 16 188 0.0 0.0 0.00 0.00 0.00 97 1020.8
20260906051731 16 188 0.0 0.0 0.00 0.00 0.00 97 1020.6
20260906051231 16 188 0.0 0.0 0.00 0.00 0.00 97 1020.8
20260906050726 16 188 0.0 0.0 0.00 0.00 0.00 97 1020.6
20260906050221 16 188 0.0 0.0 0.00 0.00 0.00 97 1020.5
20260906045720 16 188 0.0 0.0 0.00 0.00 0.00 97 1020.6
20260906045215 16 188 0.0 0.0 0.00 0.00 0.00 97 1020.8
20260906044711 16 188 0.0 0.0 0.00 0.00 0.00 96 1020.8
20260906044206 16 188 0.0 0.0 0.00 0.00 0.00 96 1020.9
20260906043702 16 188 0.0 0.0 0.00 0.00 0.00 96 1021.0
20260906043157 17 188 0.0 0.0 0.00 0.00 0.00 95 1020.9
20260906042657 17 188 0.0 0.0 0.00 0.00 0.00 95 1020.7
20260906042150 17 188 0.0 0.0 0.00 0.00 0.00 95 1020.4
20260906041646 17 188 0.0 0.0 0.00 0.00 0.00 94 1020.7
20260906041141 17 188 0.0 0.0 0.00 0.00 0.00 94 1020.6
20260906040637 17 188 0.0 0.0 0.00 0.00 0.00 93 1020.5
20260906040132 17 195 1.6 1.6 0.00 0.00 0.00 93 1020.4
20260906035627 17 195 0.0 0.0 0.00 0.00 0.00 93 1020.4
20260906035123 17 195 0.0 0.0 0.00 0.00 0.00 93 1020.4
20260906034617 17 195 1.6 1.6 0.00 0.00 0.00 92 1020.3
20260906034112 18 195 0.0 0.0 0.00 0.00 0.00 92 1020.5
20260906033608 18 196 0.0 0.0 0.00 0.00 0.00 92 1020.6
20260906033103 18 199 0.0 0.0 0.00 0.00 0.00 91 1020.5
20260906032600 18 208 0.0 0.0 0.00 0.00 0.00 91 1020.8
20260906032059 18 195 1.6 1.6 0.00 0.00 0.00 91 1020.7
20260906031555 18 188 1.6 3.2 0.00 0.00 0.00 91 1020.7
20260906031050 18 184 1.6 1.6 0.00 0.00 0.00 91 1020.9
20260906030550 18 173 0.0 0.0 0.00 0.00 0.00 90 1020.8
20260906030049 18 173 1.6 1.6 0.00 0.00 0.00 90 1020.8
20260906025543 18 185 1.6 1.6 0.00 0.00 0.00 90 1020.8
20260906025041 18 214 4.8 4.8 0.00 0.00 0.00 89 1020.7
20260906024537 18 172 3.2 3.2 0.00 0.00 0.00 89 1020.7
20260906024032 18 176 4.8 4.8 0.00 0.00 0.00 89 1020.6
20260906023528 18 176 4.8 6.4 0.00 0.00 0.00 89 1020.7
20260906023022 19 171 9.7 11.3 0.00 0.00 0.00 89 1020.7
20260906022517 19 213 3.2 3.2 0.00 0.00 0.00 89 1020.8
20260906022013 19 185 3.2 3.2 0.00 0.00 0.00 89 1020.7
20260906021509 19 196 3.2 4.8 0.00 0.00 0.00 89 1020.6
20260906021009 19 196 3.2 3.2 0.00 0.00 0.00 89 1020.6
20260906020508 19 189 0.0 0.0 0.00 0.00 0.00 90 1020.3
20260906020007 19 192 3.2 1.6 0.00 0.00 0.00 89 1020.3
20260906015501 19 200 1.6 1.6 0.00 0.00 0.00 90 1020.3
20260906015000 19 193 1.6 1.6 0.00 0.00 0.00 90 1019.9
20260906014455 19 179 1.6 1.6 0.00 0.00 0.00 90 1019.8
20260906013951 19 179 1.6 1.6 0.00 0.00 0.00 90 1019.7
20260906013446 18 146 1.6 1.6 0.00 0.00 0.00 91 1019.4
20260906012942 18 84 0.0 1.6 0.00 0.00 0.00 91 1019.4
20260906012436 18 83 0.0 0.0 0.00 0.00 0.00 91 1019.1
20260906011936 19 65 0.0 0.0 0.00 0.00 0.00 90 1018.9
20260906011431 19 64 0.0 0.0 0.00 0.00 0.00 90 1018.6
20260906010926 19 64 0.0 0.0 0.00 0.00 0.00 89 1018.6
20260906010422 19 64 0.0 0.0 0.00 0.00 0.00 89 1018.6
20260906005918 19 64 1.6 0.0 0.00 0.00 0.00 89 1018.5
20260906005418 19 65 0.0 0.0 0.00 0.00 0.00 88 1018.5
20260906004916 19 65 0.0 0.0 0.00 0.00 0.00 88 1018.3
20260906004411 19 65 0.0 0.0 0.00 0.00 0.00 89 1018.5
20260906003907 19 65 0.0 0.0 0.00 0.00 0.00 88 1018.5
20260906003402 19 65 1.6 1.6 0.00 0.00 0.00 88 1018.4
20260906002857 20 61 0.0 0.0 0.00 0.00 0.00 88 1018.5
20260906002356 20 61 0.0 0.0 0.00 0.00 0.00 87 1018.6
20260906001852 20 61 0.0 0.0 0.00 0.00 0.00 87 1018.5
20260906001348 20 61 0.0 0.0 0.00 0.00 0.00 86 1018.7
20260906000843 20 61 0.0 0.0 0.00 0.00 0.00 86 1018.6
20260906000343 20 61 0.0 0.0 0.00 0.00 0.00 86 1018.8
20260905235842 20 61 0.0 0.0 0.00 0.00 0.00 85 1018.8
20260905235337 20 61 0.0 0.0 0.00 0.00 0.00 84 1018.6
20260905234832 20 68 1.6 1.6 0.00 0.00 0.00 83 1018.7
20260905234327 20 62 0.0 0.0 0.00 0.00 0.00 83 1018.5
20260905233822 20 131 0.0 1.6 0.00 0.00 0.00 83 1018.5
20260905233317 21 170 1.6 1.6 0.00 0.00 0.00 82 1018.8
20260905232816 21 170 1.6 1.6 0.00 0.00 0.00 82 1018.9
20260905232313 21 191 1.6 1.6 0.00 0.00 0.00 82 1018.9
20260905231808 21 167 1.6 1.6 0.00 0.00 0.00 81 1018.6
20260905231303 21 249 1.6 1.6 0.00 0.00 0.00 81 1018.7
20260905230759 21 190 3.2 1.6 0.00 0.00 0.00 82 1018.3
20260905230257 21 203 3.2 4.8 0.00 0.00 0.00 81 1018.3
20260905225757 21 62 1.6 1.6 0.00 0.00 0.00 81 1018.3
20260905225252 21 216 3.2 4.8 0.00 0.00 0.00 81 1018.4
20260905224751 21 212 3.2 3.2 0.00 0.00 0.00 81 1018.5
20260905224247 21 198 4.8 4.8 0.00 0.00 0.00 81 1018.7
20260905223742 21 183 0.0 0.0 0.00 0.00 0.00 82 1018.7
20260905223239 21 198 3.2 3.2 0.00 0.00 0.00 81 1018.8
20260905222735 21 110 0.0 0.0 0.00 0.00 0.00 82 1018.7
20260905222234 21 76 0.0 0.0 0.00 0.00 0.00 80 1018.8
20260905221730 21 96 1.6 1.6 0.00 0.00 0.00 81 1018.8
20260905221227 21 186 1.6 1.6 0.00 0.00 0.00 81 1018.7
20260905220722 21 204 1.6 1.6 0.00 0.00 0.00 82 1018.6
20260905220218 21 205 0.0 0.0 0.00 0.00 0.00 82 1018.8
20260905215717 21 176 3.2 4.8 0.00 0.00 0.00 81 1019.0
20260905215213 21 173 1.6 1.6 0.00 0.00 0.00 82 1019.1
20260905214709 21 189 0.0 0.0 0.00 0.00 0.00 82 1018.8
20260905214204 21 172 6.4 9.7 0.00 0.00 0.00 82 1019.1
20260905213659 21 214 4.8 4.8 0.00 0.00 0.00 82 1019.1
20260905213155 21 184 1.6 0.0 0.00 0.00 0.00 81 1019.1
20260905212650 21 206 1.6 1.6 0.00 0.00 0.00 81 1019.3
20260905212149 21 196 0.0 0.0 0.00 0.00 0.00 82 1019.4
20260905211644 21 183 0.0 1.6 0.00 0.00 0.00 82 1019.5
20260905211140 21 163 0.0 1.6 0.00 0.00 0.00 81 1019.8
20260905210636 21 203 0.0 0.0 0.00 0.00 0.00 80 1020.1
20260905210131 21 163 3.2 3.2 0.00 0.00 0.00 81 1020.0